Location: Endfield
(51.6667°N, 0.0667°W)
Time: 15:10:56
(UTC+00:00)

IRIDIUM 106 - Pass Details

Date: 19 May 2024
Orbit: 776 x 779 km, 86.4° (Epoch: 19 June)

Event Time Altitude Azimuth Distance (km) Brightness Sun altitude
Rises 22:34:25 0° 356° (N) 3,275 9.1 -16.1°
Reaches altitude 10° 22:36:47 10° 358° (N) 2,342 8.0 -16.2°
Maximum altitude 22:42:02 77° 85° (E) 803 4.3 -16.5°
Enters shadow 22:44:51 28° 167° (SSE) 1,431 5.1 -16.6°
